Location: Cruquius
(52.3348°N, 4.6319°E)
Time: 23:01:16
(UTC+00:00)

CARTOSAT-1 - Pass Details

Date: 12 May 2021
Orbit: 617 x 618 km, 97.8° (Epoch: 24 June)

Event Time Altitude Azimuth Distance (km) Brightness Sun altitude
Exits shadow 21:13:14 14° 180° (S) 1,756 5.4 -12.6°
Maximum altitude 21:16:56 60° 259° (W) 712 4.0 -13.0°
Drops below altitude 10° 21:21:13 10° 340° (NNW) 1,995 7.5 -13.3°
Sets 21:23:27 0° 344° (NNW) 2,906 8.6 -13.5°
